Location: Palomar Mountain Lodge
(33.3110°N, 116.8495°W)
Time: 19:24:06
(UTC-07:00)

COSMOS 2406 - Pass Details

Date: 19 May 2017
Orbit: 843 x 864 km, 71.0° (Epoch: 19 August)

Event Time Altitude Azimuth Distance (km) Brightness Sun altitude
Exits shadow 21:39:02 29° 178° (S) 1,514 4.1 -20.8°
Maximum altitude 21:41:55 63° 108° (ESE) 947 3.1 -21.2°
Drops below altitude 10° 21:47:33 10° 28° (NNE) 2,479 5.8 -22.1°
Sets 21:50:01 0° 25° (NNE) 3,415 6.6 -22.4°
